Time,TemperatureF,DewpointF,PressureIn,WindDirection,WindDirectionDegrees,WindSpeedMPH,WindSpeedGustMPH,Humidity,HourlyPrecipIn,Conditions,Clouds,dailyrainin,SolarRadiationWatts/m^2,SoftwareType,DateUTC
2013-01-24 00:00:00,40.0,-99.9,-100.00,West,271,2.0,8.0,-999,-99.99,,,0.01,0.000000,,2013-01-24 07:00:00,
2013-01-24 00:53:00,40.0,-99.9,-100.00,West,271,2.0,8.0,-999,-99.99,,,0.01,0.000000,,2013-01-24 07:53:00,
2013-01-24 01:00:00,39.0,-99.9,-100.00,West,275,3.0,9.0,-999,-99.99,,,0.00,0.000000,,2013-01-24 08:00:00,
2013-01-24 01:53:00,39.0,-99.9,-100.00,West,275,3.0,9.0,-999,-99.99,,,0.00,0.000000,,2013-01-24 08:53:00,
2013-01-24 02:00:00,40.0,-99.9,-100.00,WNW,290,4.0,13.0,-999,-99.99,,,-99.99,0.000000,,2013-01-24 09:00:00,
2013-01-24 02:54:00,40.0,-99.9,-100.00,WNW,290,4.0,13.0,-999,-99.99,,,-99.99,0.000000,,2013-01-24 09:54:00,
2013-01-24 03:00:00,40.0,-99.9,-100.00,WNW,290,5.0,14.0,-999,-99.99,,,0.01,0.000000,,2013-01-24 10:00:00,
2013-01-24 03:53:00,40.0,-99.9,-100.00,WNW,290,5.0,14.0,-999,-99.99,,,0.01,0.000000,,2013-01-24 10:53:00,
2013-01-24 04:00:00,39.0,-99.9,-100.00,WNW,291,5.0,15.0,-999,-99.99,,,0.00,0.000000,,2013-01-24 11:00:00,
2013-01-24 04:53:00,39.0,-99.9,-100.00,WNW,291,5.0,15.0,-999,-99.99,,,0.00,0.000000,,2013-01-24 11:53:00,
2013-01-24 05:00:00,38.0,-99.9,-100.00,WNW,292,5.0,14.0,-999,-99.99,,,0.01,0.000000,,2013-01-24 12:00:00,
2013-01-24 05:53:00,38.0,-99.9,-100.00,WNW,292,5.0,14.0,-999,-99.99,,,0.01,0.000000,,2013-01-24 12:53:00,
2013-01-24 06:00:00,37.0,-99.9,-100.00,WNW,290,4.0,13.0,-999,-99.99,,,0.01,0.000000,,2013-01-24 13:00:00,
2013-01-24 06:53:00,37.0,-99.9,-100.00,WNW,290,4.0,13.0,-999,-99.99,,,0.01,0.000000,,2013-01-24 13:53:00,
2013-01-24 07:00:00,38.0,-99.9,-100.00,WNW,282,4.0,14.0,-999,-99.99,,,0.01,0.000000,,2013-01-24 14:00:00,
2013-01-24 07:54:00,38.0,-99.9,-100.00,WNW,282,4.0,14.0,-999,-99.99,,,0.01,0.000000,,2013-01-24 14:54:00,
2013-01-24 08:00:00,37.0,-99.9,-100.00,WNW,288,5.0,16.0,-999,-99.99,,,0.01,0.000000,,2013-01-24 15:00:00,
2013-01-24 08:53:00,37.0,-99.9,-100.00,WNW,288,5.0,16.0,-999,-99.99,,,0.01,0.000000,,2013-01-24 15:53:00,
2013-01-24 09:00:00,38.0,-99.9,-100.00,WNW,290,5.0,13.0,-999,-99.99,,,0.01,3.100000,,2013-01-24 16:00:00,
2013-01-24 10:00:00,36.0,-99.9,-100.00,WNW,293,6.0,15.0,-999,-99.99,,,0.00,15.000000,,2013-01-24 17:00:00,
2013-01-24 10:53:00,36.0,-99.9,-100.00,WNW,293,6.0,15.0,-999,-99.99,,,0.00,15.000000,,2013-01-24 17:53:00,
2013-01-24 11:00:00,38.0,-99.9,-100.00,WNW,296,5.0,13.0,-999,-99.99,,,-99.99,14.000000,,2013-01-24 18:00:00,
2013-01-24 11:54:00,38.0,-99.9,-100.00,WNW,296,5.0,13.0,-999,-99.99,,,-99.99,14.000000,,2013-01-24 18:54:00,
2013-01-24 12:00:00,40.0,-99.9,-100.00,WNW,299,4.0,16.0,-999,-99.99,,,-99.99,12.800000,,2013-01-24 19:00:00,
2013-01-24 12:53:00,40.0,-99.9,-100.00,WNW,299,4.0,16.0,-999,-99.99,,,-99.99,12.800000,,2013-01-24 19:53:00,
2013-01-24 13:00:00,38.0,-99.9,-100.00,NW,304,4.0,13.0,-999,-99.99,,,-99.99,9.500000,,2013-01-24 20:00:00,
2013-01-24 13:53:00,38.0,-99.9,-100.00,NW,304,4.0,13.0,-999,-99.99,,,-99.99,9.500000,,2013-01-24 20:53:00,
2013-01-24 14:00:00,38.0,-99.9,-100.00,WNW,295,4.0,12.0,-999,-99.99,,,-99.99,7.000000,,2013-01-24 21:00:00,
2013-01-24 14:53:00,38.0,-99.9,-100.00,WNW,295,4.0,12.0,-999,-99.99,,,-99.99,7.000000,,2013-01-24 21:53:00,
2013-01-24 15:00:00,37.0,-99.9,-100.00,WNW,300,5.0,15.0,-999,-99.99,,,-99.99,5.200000,,2013-01-24 22:00:00,
2013-01-24 15:53:00,37.0,-99.9,-100.00,WNW,300,5.0,15.0,-999,-99.99,,,-99.99,5.200000,,2013-01-24 22:53:00,
2013-01-24 16:00:00,37.0,-99.9,-100.00,NW,312,5.0,19.0,-999,-99.99,,,0.00,3.700000,,2013-01-24 23:00:00,
2013-01-24 16:53:00,37.0,-99.9,-100.00,NW,312,5.0,19.0,-999,-99.99,,,0.00,3.700000,,2013-01-24 23:53:00,
2013-01-24 17:00:00,37.0,-99.9,-100.00,NW,325,3.0,14.0,-999,-99.99,,,0.00,2.100000,,2013-01-25 00:00:00,
2013-01-24 17:53:00,37.0,-99.9,-100.00,NW,325,3.0,14.0,-999,-99.99,,,0.00,2.100000,,2013-01-25 00:53:00,
2013-01-24 18:00:00,38.0,-99.9,-100.00,WNW,291,3.0,11.0,-999,-99.99,,,0.00,0.300000,,2013-01-25 01:00:00,
2013-01-24 18:52:00,38.0,-99.9,-100.00,WNW,291,3.0,11.0,-999,-99.99,,,0.00,0.300000,,2013-01-25 01:52:00,
2013-01-24 19:00:00,37.0,-99.9,-100.00,North,-999,-999.0,-999.0,-999,-99.99,,,0.01,,,2013-01-25 02:00:00,
2013-01-24 19:53:00,37.0,-99.9,-100.00,North,-999,-999.0,-999.0,-999,-99.99,,,0.01,,,2013-01-25 02:53:00,
2013-01-24 20:00:00,37.0,-99.9,-100.00,WNW,283,3.0,10.0,-999,-99.99,,,0.00,0.000000,,2013-01-25 03:00:00,
2013-01-24 20:53:00,37.0,-99.9,-100.00,WNW,283,3.0,10.0,-999,-99.99,,,0.00,0.000000,,2013-01-25 03:53:00,
2013-01-24 21:00:00,36.0,-99.9,-100.00,WNW,291,3.0,13.0,-999,-99.99,,,0.00,0.000000,,2013-01-25 04:00:00,
2013-01-24 21:52:00,36.0,-99.9,-100.00,WNW,291,3.0,13.0,-999,-99.99,,,0.00,0.000000,,2013-01-25 04:52:00,
2013-01-24 22:00:00,37.0,-99.9,-100.00,WNW,287,3.0,14.0,-999,-99.99,,,0.01,0.000000,,2013-01-25 05:00:00,
2013-01-24 22:52:00,37.0,-99.9,-100.00,WNW,287,3.0,14.0,-999,-99.99,,,0.01,0.000000,,2013-01-25 05:52:00,
2013-01-24 23:00:00,36.0,-99.9,-100.00,WNW,283,3.0,13.0,-999,-99.99,,,0.01,0.000000,,2013-01-25 06:00:00,
2013-01-24 23:52:00,36.0,-99.9,-100.00,WNW,283,3.0,13.0,-999,-99.99,,,0.01,0.000000,,2013-01-25 06:52:00,